Regional Weather Roundup
Issued by NWS Spokane, WA

Home | Current Version | Previous Version | Text Only | Print | Product List | Glossary On
Versions: 1 2 3 4 5 6 7 8 9 10 11 12 13 14 15 16 17 18 19 20 21 22 23 24 25 26 27 28 29 30 31 32 33 34 35 36 37 38 39 40 41 42 43 44 45 46 47 48 49 50
000
NZUS01 KOTX 261900
RWROTX

Eastern Washington/Northern Idaho Roundup
National Weather Service, Spokane WA
1200 PM PDT MON SEP 26 2016

Note: "fair" indicated few or no clouds below 12,000 feet with no
significant weather and/or obstructions to visibility.

...Northeast Washington and Northern Idaho Panhandle...

CITY           SKY/WX    TMP DP  RH WIND       PRES   REMARKS
Spokane Intl   MOSUNNY   67  45  45 NE9       30.22F
Spokane Downto MOSUNNY   70  45  40 VRB3      30.22F
Deer Park      MOSUNNY   72  42  34 N9        30.23F

...Southeast Washington and southern Idaho Panhandle...

CITY           SKY/WX    TMP DP  RH WIND       PRES   REMARKS
Walla Walla    SUNNY     72  44  36 CALM      30.14F
Pullman/Moscow MOSUNNY   77  45  32 E12       30.22F HAZE
Lowell           N/A     72  47  40 VRB3      30.24F

...Columbia Basin...

CITY           SKY/WX    TMP DP  RH WIND       PRES   REMARKS
Ephrata        SUNNY     75  44  33 VRB6      30.16F
Moses Lake     SUNNY     77  43  29 N7        30.16F
Pasco          SUNNY     73  47  39 N8        30.14F
Hermiston      SUNNY     76  44  32 CALM      30.12F
Pendleton      SUNNY     78  42  27 W8        30.13F

...East Slopes Cascades...

CITY           SKY/WX    TMP DP  RH WIND       PRES   REMARKS
The Dalles     SUNNY     74  44  34 CALM      30.10F
Yakima         SUNNY     77  46  33 SE5       30.14F
Ellensburg     SUNNY     75  48  38 E3        30.16F
Stampede Pass  SUNNY     65  47  52 VRB3      30.23
Wenatchee      SUNNY     69  50  50 CALM      30.16F
Omak           SUNNY     69  45  41 SE6       30.18F
Sunnyside      CLEAR     71  51  48 SE3       30.14F

...Southern British Columbia...

CITY           SKY/WX    TMP DP  RH WIND       PRES   REMARKS

...Western Montana...

CITY           SKY/WX    TMP DP  RH WIND       PRES   REMARKS
Missoula       MOSUNNY   60  45  57 SW3       30.34F

...Neighboring Cities...

CITY           SKY/WX    TMP DP  RH WIND       PRES   REMARKS
Seattle        MOSUNNY   67  54  63 NW7       30.09F
Portland       SUNNY     74  54  49 NW6       30.04F
Boise          SUNNY     77  35  21 S13       30.30F
Great Falls    SUNNY     74  41  30 SW15      30.23F



USA.gov is the U.S. government's official web portal to all federal, state and local government web resources and services.